Weather History for Alpena, MI

Change the Weather History Date:

Friday, August 2, 2013

  Actual Average Record
Temperature  
Mean Temperature 62 °F 67 °F  
Max Temperature 73 °F 79 °F 102 °F (1988)
Min Temperature 50 °F 55 °F 35 °F (1924)
Degree Days  
Heating Degree Days 3 1  
Month to date heating degree days 3 2  
Since 1 June heating degree days 192 189  
Since 1 July heating degree days 56 46  
Cooling Degree Days 0 3  
Month to date cooling degree days 1 7  
Year to date cooling degree days 207 192  
Since 1 June cooling degree days 194 179  
Growing Degree Days 12 (Base 50)    
Moisture  
Dew Point 57 °F    
Average Humidity 79    
Maximum Humidity 96    
Minimum Humidity 61    
Precipitation  
Precipitation 0.34 in 0.10 in 1.44 in (1987)
Month to date precipitation 0.40 0.20  
Year to date precipitation 20.89 15.75  
Sea Level Pressure  
Sea Level Pressure 29.84 in    
Wind  
Wind Speed 4 mph (WNW)    
Max Wind Speed 17 mph    
Max Gust Speed 22 mph    
Visibility 9 miles    
Events Rain , Thunderstorm    
T = Trace of Precipitation, MM = Missing Value Source: NWS Daily Summary

Daily Weather History Graph

Daily Weather History Graph

Search for Another Location

Airport:

Trip Planner

Search our weather history database for the weather conditions in past years. The results will help you decide how hot, cold, wet, or windy it might be!

Date:

Astronomy

Aug. 02, 2013 Rise Set
Actual Time 6:20 AM EDT 8:59 PM EDT
Civil Twilight 5:47 AM EDT 9:32 PM EDT
Nautical Twilight 5:04 AM EDT 10:15 PM EDT
Astronomical Twilight 4:15 AM EDT 11:03 PM EDT
Moon 2:39 AM EDT (8/2) 5:58 PM EDT (8/2)
Length of Visible Light 15h 45m
Length of Day
14h 38m
Waning Crescent, 16% of the Moon is Illuminated
Aug 2
Waning Crescent
Aug 6
New
Aug 14
First Quarter
Aug 20
Full
Aug 28
Last Quarter

Hourly Weather History & Observations

Time (EDT) Temp. Dew Point Humidity Pressure Visibility Wind Dir Wind Speed Gust Speed Precip Events Conditions
12:54 AM 55.0 °F 52.0 °F 89% 29.89 in 10.0 mi Calm Calm - N/A   Clear
1:54 AM 53.1 °F 51.1 °F 93% 29.87 in 10.0 mi Calm Calm - N/A   Clear
2:54 AM 53.1 °F 50.0 °F 89% 29.86 in 10.0 mi Calm Calm - N/A   Clear
3:54 AM 52.0 °F 50.0 °F 93% 29.85 in 10.0 mi Calm Calm - N/A   Clear
4:54 AM 53.1 °F 52.0 °F 96% 29.84 in 10.0 mi Calm Calm - 0.00 in   Mostly Cloudy
5:54 AM 54.0 °F 52.0 °F 93% 29.86 in 10.0 mi Calm Calm - N/A   Clear
6:54 AM 53.1 °F 51.1 °F 93% 29.86 in 10.0 mi Calm Calm - N/A   Partly Cloudy
7:54 AM 55.0 °F 54.0 °F 96% 29.85 in 10.0 mi Calm Calm - N/A   Clear
8:54 AM 61.0 °F 55.9 °F 83% 29.84 in 10.0 mi South 3.5 mph - N/A   Clear
9:54 AM 66.0 °F 57.0 °F 73% 29.84 in 10.0 mi South 5.8 mph - N/A   Scattered Clouds
10:54 AM 62.1 °F 57.9 °F 86% 29.85 in 4.0 mi Calm Calm - 0.02 in Rain , Thunderstorm Light Thunderstorms and Rain
11:17 AM 62.6 °F 59.0 °F 88% 29.84 in 10.0 mi Calm Calm - 0.01 in   Overcast
11:54 AM 63.0 °F 59.0 °F 87% 29.84 in 10.0 mi Calm Calm - 0.01 in   Overcast
12:54 PM 68.0 °F 57.9 °F 70% 29.82 in 10.0 mi West 6.9 mph - N/A   Partly Cloudy
1:54 PM 71.1 °F 57.0 °F 61% 29.80 in 10.0 mi WSW 4.6 mph - N/A   Scattered Clouds
2:13 PM 68.0 °F 60.8 °F 78% 29.80 in 2.5 mi SW 8.1 mph - 0.03 in Rain , Thunderstorm Heavy Thunderstorms and Rain
2:26 PM 68.0 °F 62.6 °F 83% 29.79 in 10.0 mi WSW 5.8 mph - 0.07 in Thunderstorm Thunderstorm
2:54 PM 70.0 °F 62.1 °F 76% 29.80 in 10.0 mi NNE 15.0 mph 21.9 mph 0.07 in Thunderstorm Scattered Clouds
3:03 PM 66.2 °F 60.8 °F 83% 29.80 in 10.0 mi North 11.5 mph - N/A   Mostly Cloudy
3:09 PM 64.4 °F 60.8 °F 88% 29.80 in 1.5 mi Variable 4.6 mph - 0.01 in Rain Rain
3:25 PM 64.4 °F 62.6 °F 94% 29.80 in 10.0 mi NE 8.1 mph - 0.16 in   Overcast
3:54 PM 68.0 °F 63.0 °F 84% 29.80 in 10.0 mi East 5.8 mph - 0.16 in   Clear
4:54 PM 69.1 °F 60.1 °F 73% 29.80 in 10.0 mi NNE 12.7 mph - N/A   Mostly Cloudy
5:54 PM 69.1 °F 60.1 °F 73% 29.81 in 10.0 mi NNE 8.1 mph - N/A   Mostly Cloudy
6:54 PM 70.0 °F 57.9 °F 65% 29.81 in 10.0 mi North 3.5 mph - N/A   Clear
7:54 PM 70.0 °F 57.9 °F 65% 29.83 in 10.0 mi NW 6.9 mph - N/A   Clear
8:29 PM 66.2 °F 57.2 °F 73% 29.83 in 10.0 mi NW 4.6 mph - N/A Thunderstorm Thunderstorm
8:54 PM 64.9 °F 57.9 °F 78% 29.85 in 10.0 mi Calm Calm - 0.00 in Rain , Thunderstorm Light Thunderstorms and Rain
9:05 PM 62.6 °F 57.2 °F 82% 29.86 in 1.8 mi WNW 8.1 mph - 0.02 in Rain Heavy Rain
9:13 PM 60.8 °F 57.2 °F 88% 29.86 in 3.0 mi SSW 5.8 mph - 0.08 in Rain , Thunderstorm Light Thunderstorms and Rain
9:40 PM 59.0 °F 55.4 °F 88% 29.88 in 10.0 mi WSW 4.6 mph - 0.08 in   Scattered Clouds
9:54 PM 59.0 °F 55.9 °F 90% 29.88 in 10.0 mi Calm Calm - 0.08 in   Partly Cloudy
10:54 PM 57.9 °F 55.0 °F 90% 29.90 in 10.0 mi NW 3.5 mph - N/A   Clear
11:54 PM 55.9 °F 54.0 °F 93% 29.91 in 10.0 mi West 4.6 mph - N/A   Clear